Weather History for Plattsburgh, NY

Change the Weather History Date:

Friday, November 25, 2011

  Actual Average Record
Temperature  
Mean Temperature 40 °F 33 °F  
Max Temperature 50 °F 42 °F 60 °F (1979)
Min Temperature 29 °F 24 °F 7 °F (1993)
Degree Days  
Heating Degree Days 25 32  
Month to date heating degree days 603 683  
Since 1 July heating degree days 1210 1466  
Cooling Degree Days 0 0  
Month to date cooling degree days 0  
Year to date cooling degree days 346  
Moisture  
Dew Point 34 °F    
Average Humidity 85    
Maximum Humidity 100    
Minimum Humidity 70    
Precipitation  
Precipitation 0.00 in - 0.85 in (1987)
Month to date precipitation 1.57  
Year to date precipitation 37.60  
Sea Level Pressure  
Sea Level Pressure 29.98 in    
Wind  
Wind Speed 6 mph (South)    
Max Wind Speed 16 mph    
Max Gust Speed 20 mph    
Visibility 9 miles    
Events      
T = Trace of Precipitation, MM = Missing Value Source: NWS Daily Summary

Daily Weather History Graph

Daily Weather History Graph

Search for Another Location

Airport:

Trip Planner

Search our weather history database for the weather conditions in past years. The results will help you decide how hot, cold, wet, or windy it might be!

Date:

Astronomy

Nov. 25, 2011 Rise Set
Actual Time 7:03 AM EST 4:18 PM EST
Civil Twilight 6:30 AM EST 4:50 PM EST
Nautical Twilight 5:54 AM EST 5:26 PM EST
Astronomical Twilight 5:19 AM EST 6:01 PM EST
Moon 7:30 AM EST (11/25) 4:40 PM EST (11/25)
Length of Visible Light 10h 19m
Length of Day
9h 14m
New Moon, 0% of the Moon is Illuminated
Nov 25
New Moon
Dec 2
First Quarter
Dec 10
Full
Dec 17
Last Quarter
Dec 24
New

Hourly Weather History & Observations

Time (EST) Temp. Windchill Dew Point Humidity Pressure Visibility Wind Dir Wind Speed Gust Speed Precip Events Conditions
12:37 AM 33.8 °F 29.6 °F 32.0 °F 93% 30.02 in 10.0 mi South 4.6 mph - N/A   Scattered Clouds
12:53 AM 34.0 °F 28.8 °F 32.0 °F 92% 30.02 in 10.0 mi SSW 5.8 mph - N/A   Clear
1:53 AM 30.9 °F - 30.0 °F 96% 30.02 in 5.0 mi Calm Calm - N/A   Clear
4:02 AM 30.2 °F 26.7 °F 30.2 °F 100% 30.00 in 2.5 mi SSE 3.5 mph - N/A   Clear
4:10 AM 30.2 °F 24.3 °F 28.4 °F 93% 30.00 in 5.0 mi SSE 5.8 mph - N/A   Clear
4:53 AM 34.0 °F 27.2 °F 30.9 °F 89% 30.01 in 9.0 mi South 8.1 mph - N/A   Mostly Cloudy
5:53 AM 34.0 °F 28.0 °F 32.0 °F 92% 30.01 in 9.0 mi South 6.9 mph - N/A   Overcast
7:53 AM 35.1 °F 28.6 °F 32.0 °F 89% 30.02 in 9.0 mi South 8.1 mph - N/A   Mostly Cloudy
8:17 AM 35.6 °F 29.2 °F 33.8 °F 93% 30.01 in 9.0 mi South 8.1 mph - N/A   Partly Cloudy
8:53 AM 37.0 °F 32.4 °F 33.1 °F 86% 30.02 in 9.0 mi South 5.8 mph - N/A   Clear
9:53 AM 39.0 °F 34.0 °F 35.1 °F 86% 30.01 in 10.0 mi South 6.9 mph - N/A   Clear
10:53 AM 42.1 °F 37.7 °F 36.0 °F 79% 29.99 in 10.0 mi South 6.9 mph - N/A   Clear
11:53 AM 44.1 °F 39.0 °F 36.0 °F 73% 29.95 in 10.0 mi SSE 9.2 mph - N/A   Clear
12:53 PM 45.0 °F 40.6 °F 36.0 °F 71% 29.93 in 10.0 mi South 8.1 mph - N/A   Clear
2:53 PM 46.0 °F 40.6 °F 37.0 °F 71% 29.91 in 10.0 mi SSE 11.5 mph - N/A   Clear
3:53 PM 45.0 °F 40.6 °F 36.0 °F 71% 29.91 in 10.0 mi SSE 8.1 mph - N/A   Clear
4:53 PM 44.1 °F 39.5 °F 37.0 °F 76% 29.93 in 10.0 mi SSE 8.1 mph - N/A   Clear
5:53 PM 45.0 °F 40.6 °F 37.0 °F 74% 29.94 in 10.0 mi SSE 8.1 mph - N/A   Clear
6:53 PM 43.0 °F - 37.0 °F 80% 29.93 in 10.0 mi Calm Calm - N/A   Clear
7:53 PM 45.0 °F 41.2 °F 37.9 °F 76% 29.95 in 10.0 mi SSE 6.9 mph - N/A   Clear
8:53 PM 42.1 °F - 37.0 °F 82% 29.95 in 10.0 mi Calm Calm - N/A   Clear
10:53 PM 39.9 °F 36.7 °F 36.0 °F 86% 29.98 in 10.0 mi South 4.6 mph - N/A   Clear
11:53 PM 45.0 °F 42.6 °F 33.1 °F 63% 29.99 in 10.0 mi SSW 4.6 mph - N/A   Clear